Weather History for Palma de Mallorca, Spain

Change the Weather History Date:

Monday, April 1, 2013

  Actual Average Record
Temperature  
Mean Temperature 62 °F -  
Max Temperature 68 °F 66 °F 72 °F (2014)
Min Temperature 55 °F 46 °F 35 °F (2001)
Degree Days  
Heating Degree Days 2    
Growing Degree Days 12 (Base 50)    
Moisture  
Dew Point 52 °F    
Average Humidity 73    
Maximum Humidity 100    
Minimum Humidity 38    
Precipitation  
Precipitation 0.01 in 0.05 in - ()
Sea Level Pressure  
Sea Level Pressure 29.52 in    
Wind  
Wind Speed 10 mph ()    
Max Wind Speed 24 mph    
Max Gust Speed 31 mph    
Visibility 6.6 miles    
Events Rain    
Averages and records for this station are not official NWS values.
T = Trace of Precipitation, MM = Missing Value Source: Averaged Metar Reports

Daily Weather History Graph

Daily Weather History Graph

Search for Another Location

Airport:

Trip Planner

Search our weather history database for the weather conditions in past years. The results will help you decide how hot, cold, wet, or windy it might be!

Date:

Astronomy

Apr. 01, 2013 Rise Set
Actual Time 7:33 AM CEST 8:13 PM CEST
Civil Twilight 7:06 AM CEST 8:40 PM CEST
Nautical Twilight 6:34 AM CEST 9:12 PM CEST
Astronomical Twilight 6:01 AM CEST 9:45 PM CEST
Moon 1:04 AM CEST (4/1) 11:05 AM CEST (4/1)
Length of Visible Light 13h 34m
Length of Day
12h 39m
Waning Gibbous, 70% of the Moon is Illuminated
Apr 1
Waning Gibbous
Apr 3
Last Quarter
Apr 10
New
Apr 18
First Quarter
Apr 25
Full

Hourly Weather History & Observations

Time (CEST) Temp. Dew Point Humidity Pressure Visibility Wind Dir Wind Speed Gust Speed Precip Events Conditions
12:00 AM 57.2 °F 53.6 °F 88% 29.65 in 6.2 mi Calm Calm - N/A   Partly Cloudy
12:30 AM 59.0 °F 55.4 °F 88% 29.65 in 6.2 mi SSW 4.6 mph - N/A   Scattered Clouds
1:00 AM 59.0 °F 57.2 °F 94% 29.62 in 6.2 mi SSW 5.8 mph - N/A   Scattered Clouds
1:30 AM 59.0 °F 57.2 °F 94% 29.62 in 6.2 mi SSW 6.9 mph - N/A   Scattered Clouds
2:00 AM 58 °F 53 °F 77% 29.61 in 9 mi SSW 12.7 mph - -   Partly Cloudy
2:00 AM 59.0 °F 55.4 °F 88% 29.59 in 6.2 mi SSW 9.2 mph - N/A   Scattered Clouds
2:30 AM 59.0 °F 55.4 °F 88% 29.59 in 6.2 mi South 8.1 mph - N/A   Scattered Clouds
3:00 AM 59.0 °F 55.4 °F 88% 29.59 in 6.2 mi SSW 8.1 mph - N/A   Scattered Clouds
3:30 AM 59.0 °F 55.4 °F 88% 29.56 in 6.2 mi SSW 8.1 mph - N/A   Scattered Clouds
4:00 AM 59.0 °F 55.4 °F 88% 29.56 in 6.2 mi SSW 5.8 mph - N/A   Scattered Clouds
4:30 AM 59.0 °F 57.2 °F 94% 29.53 in 6.2 mi South 4.6 mph - N/A   Scattered Clouds
5:00 AM 59.0 °F 57.2 °F 94% 29.53 in 6.2 mi SSW 9.2 mph - N/A Rain Light Rain
5:30 AM 59.0 °F 57.2 °F 94% 29.50 in 6.2 mi SW 10.4 mph - N/A Rain Light Rain
6:00 AM 59.0 °F 57.2 °F 94% 29.50 in 6.2 mi SSW 10.4 mph - N/A Rain Light Rain
6:30 AM 59.0 °F 57.2 °F 94% 29.47 in 6.2 mi South 6.9 mph - N/A Rain Light Rain
7:00 AM 59.0 °F 59.0 °F 100% 29.47 in 6.2 mi SSW 12.7 mph - N/A Rain Light Rain
7:30 AM 59.0 °F 59.0 °F 100% 29.44 in 6.2 mi SSW 15.0 mph - N/A   Scattered Clouds
8:00 AM 58 °F 56 °F 90% 29.46 in 3 mi SW 24.2 mph - - Rain Rain
8:00 AM 59.0 °F 57.2 °F 94% 29.44 in 3.1 mi SW 19.6 mph - N/A Rain Rain
8:30 AM 59.0 °F 55.4 °F 88% 29.44 in 5.6 mi WSW 20.7 mph - N/A Rain Light Rain
9:00 AM 59.0 °F 55.4 °F 88% 29.44 in 5.6 mi West 12.7 mph - N/A Rain Light Rain
9:30 AM 59.0 °F 55.4 °F 88% 29.44 in 6.2 mi WSW 10.4 mph - N/A   Scattered Clouds
10:00 AM 60.8 °F 55.4 °F 82% 29.44 in 6.2 mi WSW 16.1 mph - N/A   Scattered Clouds
10:30 AM 62.6 °F 55.4 °F 77% 29.44 in 6.2 mi West 18.4 mph 31.1 mph N/A   Partly Cloudy
11:00 AM 62.6 °F 55.4 °F 77% 29.47 in 6.2 mi WSW 18.4 mph - N/A   Partly Cloudy
11:30 AM 60.8 °F 55.4 °F 82% 29.47 in 6.2 mi SW 17.3 mph - N/A   Light Drizzle
12:30 PM 64.4 °F 51.8 °F 64% 29.47 in 6.2 mi WSW 24.2 mph - N/A   Scattered Clouds
1:00 PM 64.4 °F 51.8 °F 64% 29.47 in 6.2 mi WSW 20.7 mph - N/A   Scattered Clouds
1:30 PM 66.2 °F 51.8 °F 60% 29.47 in 6.2 mi West 19.6 mph - N/A   Scattered Clouds
2:00 PM 65 °F 47 °F 41% 29.49 in 19 mi West 18.4 mph - -   Partly Cloudy
2:00 PM 68.0 °F 53.6 °F 60% 29.47 in 6.2 mi WSW 20.7 mph - N/A   Scattered Clouds
2:30 PM 66.2 °F 50.0 °F 56% 29.50 in 6.2 mi West 20.7 mph - N/A   Scattered Clouds
3:00 PM 66.2 °F 50.0 °F 56% 29.50 in 6.2 mi West 21.9 mph - N/A   Partly Cloudy
3:30 PM 68.0 °F 50.0 °F 52% 29.50 in 6.2 mi West 19.6 mph - N/A   Scattered Clouds
4:00 PM 68.0 °F 48.2 °F 49% 29.50 in 6.2 mi West 21.9 mph - N/A   Partly Cloudy
4:30 PM 66.2 °F 50.0 °F 56% 29.50 in 6.2 mi West 23.0 mph - N/A   Partly Cloudy
5:00 PM 66.2 °F 48.2 °F 52% 29.50 in 6.2 mi West 20.7 mph - N/A   Partly Cloudy
5:30 PM 68.0 °F 48.2 °F 49% 29.50 in 6.2 mi West 18.4 mph - N/A   Partly Cloudy
6:30 PM 66.2 °F 46.4 °F 49% 29.50 in 6.2 mi West 16.1 mph - N/A   Partly Cloudy
7:00 PM 66.2 °F 42.8 °F 43% 29.50 in 6.2 mi WNW 12.7 mph - N/A   Partly Cloudy
7:30 PM 64.4 °F 50.0 °F 59% 29.53 in 6.2 mi WNW 8.1 mph - N/A   Partly Cloudy
8:00 PM 62 °F 43 °F 38% 29.55 in 19 mi West 3.5 mph - -   Scattered Clouds
8:00 PM 62.6 °F 46.4 °F 55% 29.53 in 6.2 mi West 6.9 mph - N/A   Partly Cloudy
8:30 PM 60.8 °F 44.6 °F 55% 29.56 in 6.2 mi Variable 2.3 mph - N/A   Partly Cloudy
9:00 PM 60.8 °F 44.6 °F 55% 29.56 in 6.2 mi Variable 1.2 mph - N/A   Partly Cloudy
9:30 PM 59.0 °F 44.6 °F 59% 29.59 in 6.2 mi NW 6.9 mph - N/A   Partly Cloudy
10:00 PM 59.0 °F 44.6 °F 59% 29.59 in 6.2 mi Variable 2.3 mph - N/A   Partly Cloudy
10:30 PM 57.2 °F 46.4 °F 67% 29.62 in 6.2 mi Calm Calm - N/A   Partly Cloudy
11:00 PM 59.0 °F 46.4 °F 63% 29.62 in 6.2 mi Variable 2.3 mph - N/A   Partly Cloudy
11:30 PM 55.4 °F 46.4 °F 72% 29.65 in 6.2 mi East 10.4 mph - N/A   Partly Cloudy